User: anonymous   Login
Location: Unspecified
(0.0000°N, 0.0000°E)
Time: 17:40:44
(UTC+00:00)
Language:

NAVSTAR 65 (USA 213) - Orbit

View from above orbital plane
View from above orbital plane
View from above satellite
View from above satellite

Ground track
Ground track

The orbit data is extracted from the following two-line orbital elements,

1 36585U 10022A   16336.65207235 -.00000057 +00000-0 +00000-0 0  9994
2 36585 056.0398 348.4534 0055856 041.5125 147.2827 02.00564954047702
Epoch (UTC): 01 December 2016 15:38:59
Eccentricity: 0.0055856
inclination: 56.0398°
perigee height: 20033 km
apogee height: 20330 km
right ascension of ascending node: 348.4534°
argument of perigee: 41.5125°
revolutions per day: 2.00564954
mean anomaly at epoch: 147.2827°
orbit number at epoch: 4770

The dashed part of the orbit path shows where the satellite is in the earth's shadow,  

DLR